Roanoke, VA

10:46 AM EST on December 14, 2019 (GMT -0500)
Roanoke Regional-Woodrum

Weather History for KROA - October, 2019

Change the Weather History Date:

Sunday, October 6, 2019

  Actual Average Record
Temperature  
Mean Temperature 62 °F 61 °F  
Max Temperature 69 °F 72 °F 99 °F (1941)
Min Temperature 55 °F 50 °F 32 °F (1965)
Degree Days  
Heating Degree Days 3 6  
Month to date heating degree days 8 30  
Since 1 July heating degree days 9 79  
Cooling Degree Days 0 1  
Month to date cooling degree days 65 8  
Year to date cooling degree days 1749 1194  
Growing Degree Days 12 (Base 50)    
Moisture  
Dew Point 55 °F    
Average Humidity 83    
Maximum Humidity 93    
Minimum Humidity 72    
Precipitation  
Precipitation 0.18 in 0.10 in 1.13 in (1934)
Month to date precipitation 0.18 0.55  
Year to date precipitation 32.24 32.57  
Snow  
Snow 0.00 in - - ()
Month to date snowfall 0.0  
Since 1 July snowfall T  
Since 1 September snowfall 0.0  
Snow Depth 0.00 in    
Sea Level Pressure  
Sea Level Pressure 30.29 in    
Wind  
Wind Speed 3 mph (SE)    
Max Wind Speed 10 mph    
Max Gust Speed 12 mph    
Visibility 9 miles    
Events Rain    
T = Trace of Precipitation, MM = Missing Value Source: NWS Daily Summary

Daily Weather History Graph

Daily Weather History Graph

Search for Another Location

Airport or City:

Astronomy

Oct. 06, 2019 Rise Set
Actual Time 7:19 AM EDT 6:56 PM EDT
Civil Twilight 6:53 AM EDT 7:22 PM EDT
Nautical Twilight 6:23 AM EDT 7:52 PM EDT
Astronomical Twilight 5:52 AM EDT 8:22 PM EDT
Moon 3:24 PM EDT (10/6) 12:26 AM EDT (10/6)
Length of Visible Light 12h 28m
Length of Day
11h 36m
First Quarter, 59% of the Moon is Illuminated
Oct 6
First Quarter
Oct 13
Full
Oct 21
Last Quarter
Oct 27
New
Nov 4
First Quarter

Hourly Weather History & Observations

Time (EDT) Temp. Dew Point Humidity Pressure Visibility Wind Dir Wind Speed Gust Speed Precip Events Conditions
12:54 AM 57.9 °F 48.0 °F 70% 30.31 in 10.0 mi ESE 3.5 mph - N/A   Overcast
1:54 AM 57.9 °F 48.9 °F 72% 30.30 in 10.0 mi Calm Calm - N/A   Overcast
2:40 AM 55.0 °F 50.0 °F 83% 30.32 in 1.8 mi Calm Calm - 0.06 in Rain Heavy Rain
2:54 AM 55.9 °F 51.1 °F 84% 30.31 in 1.8 mi SSE 3.5 mph - 0.17 in Rain Light Rain
3:01 AM 55.9 °F 51.1 °F 84% 30.31 in 8.0 mi Calm Calm - 0.01 in Rain Light Rain
3:54 AM 55.9 °F 52.0 °F 87% 30.30 in 10.0 mi Calm Calm - 0.01 in   Overcast
4:54 AM 55.9 °F 52.0 °F 87% 30.29 in 10.0 mi Calm Calm - N/A   Overcast
5:54 AM 55.9 °F 53.1 °F 90% 30.30 in 10.0 mi West 3.5 mph - N/A   Overcast
6:54 AM 55.9 °F 53.1 °F 90% 30.30 in 10.0 mi Calm Calm - N/A   Overcast
7:54 AM 57.0 °F 54.0 °F 89% 30.30 in 10.0 mi Calm Calm - N/A   Overcast
8:03 AM 57.0 °F 53.1 °F 87% 30.32 in 10.0 mi Calm Calm - N/A   Overcast
8:54 AM 57.0 °F 53.1 °F 87% 30.31 in 10.0 mi Calm Calm - N/A   Overcast
9:54 AM 59.0 °F 54.0 °F 83% 30.31 in 10.0 mi Calm Calm - N/A   Overcast
10:54 AM 60.1 °F 54.0 °F 80% 30.32 in 10.0 mi Calm Calm - N/A   Overcast
11:23 AM 61.0 °F 54.0 °F 78% 30.33 in 10.0 mi Calm Calm - N/A   Overcast
11:54 AM 62.1 °F 55.0 °F 78% 30.32 in 10.0 mi Calm Calm - N/A   Overcast
12:54 PM 63.0 °F 55.9 °F 78% 30.31 in 10.0 mi South 3.5 mph - N/A   Overcast
1:54 PM 64.0 °F 55.9 °F 75% 30.29 in 10.0 mi NNW 4.6 mph - N/A   Overcast
2:54 PM 64.9 °F 57.9 °F 78% 30.28 in 10.0 mi Calm Calm - 0.00 in   Overcast
3:54 PM 66.0 °F 59.0 °F 78% 30.26 in 10.0 mi ESE 3.5 mph - N/A   Overcast
4:54 PM 68.0 °F 60.1 °F 76% 30.25 in 10.0 mi Calm Calm - N/A   Overcast
5:54 PM 69.1 °F 60.1 °F 73% 30.24 in 10.0 mi SSE 5.8 mph - N/A   Overcast
6:54 PM 68.0 °F 60.1 °F 76% 30.25 in 10.0 mi SE 4.6 mph - N/A   Overcast
7:54 PM 66.9 °F 60.1 °F 79% 30.25 in 10.0 mi SE 4.6 mph - N/A   Overcast
8:54 PM 66.9 °F 60.1 °F 79% 30.25 in 10.0 mi SE 5.8 mph - N/A   Overcast
9:54 PM 66.9 °F 60.1 °F 79% 30.25 in 10.0 mi SE 4.6 mph - N/A   Overcast
10:54 PM 66.0 °F 60.1 °F 81% 30.24 in 10.0 mi SE 6.9 mph - N/A   Overcast
11:54 PM 66.0 °F 60.1 °F 81% 30.24 in 10.0 mi SE 6.9 mph - N/A   Overcast